Regional Weather Roundup
Issued by NWS Sterling, VA

Home | Current Version | Previous Version | Graphics & Text | Print | Product List | Glossary On
Versions: 1 2 3 4 5 6 7 8 9 10 11 12 13 14 15 16 17 18 19 20 21 22 23 24 25 26 27 28 29 30 31 32 33 34 35 36 37 38 39 40 41 42 43 44 45 46 47 48 49 50
000
ASUS41 KLWX 010310
RWRLWX

REGIONAL WEATHER ROUNDUP
NATIONAL WEATHER SERVICE BALTIMORE MD/WASHINGTON DC
1100 PM EDT SUN AUG 31 2014

Note: "FAIR" indicates few or no clouds below 12,000 feet
with no significant weather and/or obstructions to visibility.
 TC=TEMPERATURE CELSIUS

 * =Non NWS site. Station does not report precipitation (e.g. rain,
    snow, etc.), thunder, or fog.

DCZ001-MDZ009-015-VAZ040>042-051-053>054-010400-
WASHINGTON METRO

CITY           SKY/WX    TMP DP  RH WIND       PRES   REMARKS
WASHINGTON NAT CLOUDY    77  72  83 VRB3      30.05S
DULLES         MOCLDY    71  70  96 CALM      30.05S
ANDREWS AFB    CLOUDY    74  74  99 S6        30.05F
QUANTICO       CLOUDY    74  71  91 W5        30.05S
COLLEGE PARK*  CLOUDY    75  73  94 CALM      30.05R
LEESBURG*      MOCLDY    73  73 100 CALM      30.05S
MANASSAS*      MOCLDY    73  72  94 NW3       30.05R
GAITHERSBURG*  CLOUDY    73  70  88 CALM      30.09S

$$

MDZ006>007-011-014-010400-
BALTIMORE METRO

CITY           SKY/WX    TMP DP  RH WIND       PRES   REMARKS
BWI AIRPORT    RAIN      74  73  97 SW3       30.04R FOG
MD SCIENCE CTR   N/A     77  73  87 MISG      30.04R
MARTIN STATE   CLOUDY    77  73  88 CALM      30.04F
ANNAPOLIS      RAIN      75  72  90 CALM      30.04R FOG
FORT MEADE*    CLOUDY    72  70  94 CALM      30.07R

$$

MDZ012-015-019>023-010400-
MARYLAND EASTERN SHORE

CITY           SKY/WX    TMP DP  RH WIND       PRES   REMARKS
OCEAN CITY     PTCLDY    79  74  84 SW15      30.05F
SALISBURY      PTCLDY    79  73  82 S8        30.04F
BAY BRIDGE AP* TSTM      73  73 100 NW7       30.04R
CAMBRIDGE*     MOCLDY    79  73  83 S7        30.03R
EASTON*        DRIZZLE   80  80 100 S5        30.06F HX  90

$$

MDZ017>025-010400-
SOUTHERN MARYLAND

CITY           SKY/WX    TMP DP  RH WIND       PRES   REMARKS
PATUXENT RIVER MOCLDY    80  73  79 SW6       30.04R
ST INIGOES     MOCLDY    80  71  74 S5        30.04R
LEONARDTOWN*   NOT AVBL

$$

MDZ003>005-010400-
NORTH CENTRAL MARYLAND

CITY           SKY/WX    TMP DP  RH WIND       PRES   REMARKS
FREDERICK*     CLOUDY   N/A N/A N/A SE5       30.07S
HAGERSTOWN APT MOCLDY    76  70  82 S5        30.04S
WESTMINSTER*   CLOUDY    73  72  94 S5        30.05S

$$

MDZ501>502-010400-
WESTERN MARYLAND

CITY           SKY/WX    TMP DP  RH WIND       PRES   REMARKS
OAKLAND*       CLOUDY    64 N/A N/A W6        30.15F
CUMBERLAND*    MOCLDY    75  66  73 S3        30.09R

$$

VAZ025>031-010400-
SHENANDOAH VALLEY

CITY           SKY/WX    TMP DP  RH WIND       PRES   REMARKS
WINCHESTER*    CLOUDY    73  72  94 CALM      30.05S
STAUNTON*      CLOUDY    74  69  84 CALM      30.12R

$$

WVZ021-048>050-054>055-010400-
EASTERN WEST VIRGINIA PANHANDLE

CITY           SKY/WX    TMP DP  RH WIND       PRES   REMARKS
MARTINSBURG    MOCLDY    74  69  85 CALM      30.05S
PETERSBURG*    NOT AVBL

$$

VAZ036>039-050-010400-
CENTRAL FOOTHILLS

CITY           SKY/WX    TMP DP  RH WIND       PRES   REMARKS
CHARLOTTESVILL MOCLDY    76  70  82 CALM      30.06S
ORANGE*        MOCLDY    72  70  94 CALM      30.07S

$$

VAZ055>057-010400-
NORTH AND CENTRAL PIEDMONT

CITY           SKY/WX    TMP DP  RH WIND       PRES   REMARKS
FREDERICKSBRG* MOCLDY    77  72  86 CALM      30.04S
STAFFORD*      MOCLDY    72  72 100 CALM      30.09S

$$

NCZ024-NYZ072-PAZ021-071-VAZ022-071-010400-
OTHER REGIONAL OBSERVATIONS

CITY           SKY/WX    TMP DP  RH WIND       PRES   REMARKS
NEW YORK CITY  CLOUDY    76  72  87 SW5       30.03S
PHILADELPHIA   LGT RAIN  74  71  91 CALM      30.03F
PITTSBURGH     MOCLDY    71  70  96 S5        30.04S
ROANOKE        MOCLDY    78  69  73 SE3       30.12R
RICHMOND       CLOUDY    79  72  79 S6        30.05S
RALEIGH        MOCLDY    81  71  71 S9        30.10R

$$

ANZ530>537-010400-
MARINE OBSERVATIONS

STATION/POSITION TIME  TEMP    WIND        PRES
                       AIR SEA DIR/SP/G
                 (UTC) (F)     (DEG/KT/KT) (MB)
THOMAS PT LIGHT  0300   74 79  260/ 12/ 13 1018.5R
BALT KEY BRIDGE  0300          200/  4/  5 1016.7F
COVE POINT       0300   81     280/  3/  4 1017.1R
LEWISETTA        0300   81 81  210/  8/  9 1016.9S
SOLOMONS ISLAND  0300      80                N/A
PINEY POINT      0300          220/  6/  7   N/A

$$




USA.gov is the U.S. government's official web portal to all federal, state and local government web resources and services.